Volver al catálogo

STARLINK-5373

ActivoComunicacionesVLEO
NORAD 55490·PAYLOAD·🇺🇸 United States

Lanzado Feb 2, 2023 desde Cape Canaveral Space Force Station

Loading…

Próximos Pases (próximas 24 horas)

TLE

ActualizadoSource: CelesTrak SupGP

Época: Sep 15, 2026, 02:41 UTC

1 55490C 23015AT  26258.11229167  .00017133  00000+0  62067-3 0  2582
2 55490  43.0018 349.7116 0001560 264.9839 250.8072 15.27564237    12

Sigue STARLINK-5373 en tiempo real con AllMySat

Download on the App Store